Location: Banksville Park
(38.5557°N, 75.1182°W)
Time: 23:05:12
(UTC+00:00)

Cosmos 1025 Rocket - Pass Details

Date: 19 September 2020
Orbit: 594 x 617 km, 82.5° (Epoch: 30 October)

Event Time Altitude Azimuth Distance (km) Brightness Sun altitude
Rises 01:16:10 0° 344° (NNW) 2,885 7.1 -26.0°
Reaches altitude 10° 01:18:30 10° 336° (NNW) 1,979 6.2 -26.4°
Maximum altitude 01:22:34 38° 268° (W) 938 4.3 -27.2°
Enters shadow 01:23:51 31° 230° (SW) 1,089 4.4 -27.4°
